Printer-friendly version

IAU Minor Planet Center

Minor Planet Center

MPEC 2004-Q10 : 2004 MF6

The following Minor Planet Electronic Circular may be linked-to from your own Web pages, but must not otherwise be redistributed electronically.


Read MPEC 2004-Q09 Read MPEC 2004-Q11


M.P.E.C. 2004-Q10                                Issued 2004 Aug. 17, 17:58 UT

     The Minor Planet Electronic Circulars contain information on unusual
         minor planets and routine data on comets.  They are published
   on behalf of Commission 20 of the International Astronomical Union by the
          Minor Planet Center, Smithsonian Astrophysical Observatory,
                          Cambridge, MA 02138, U.S.A.

                  Supported in part by the Brinson Foundation
             Prepared using the Tamkin Foundation Computer Network

                              MPC@CFA.HARVARD.EDU
          URL http://cfa-www.harvard.edu/iau/mpc.html  ISSN 1523-6714

                                   2004 MF6

                           Revision to MPEC 2004-M60

Additional Observations:
     K04M06F  C2001 10 20.45765 01 41 41.99 +17 00 11.7          19.4 R EQ010644
     K04M06F  C2001 10 20.47903 01 41 40.66 +16 59 54.4          19.5 R EQ010644
     K04M06F  C2001 10 20.50024 01 41 39.33 +16 59 36.7          19.9 R EQ010644
     K04M06F  C2001 10 26.28432 01 36 18.16 +15 43 10.3          19.2 R EQ010644
     K04M06F  C2001 10 26.30546 01 36 16.97 +15 42 54.0                 EQ010644
     K04M06F  C2001 10 26.32663 01 36 15.77 +15 42 39.2          19.7 R EQ010644
     K04M06F  C2004 08 14.97052 22 02 14.13 +11 12 20.8          19.1 R EQ010952
     K04M06F  C2004 08 14.97581 22 02 14.27 +11 12 21.6          18.9 R EQ010952
     K04M06F  C2004 08 14.98005 22 02 14.38 +11 12 22.1          18.9 R EQ010952
     K04M06F  C2004 08 14.98428 22 02 14.50 +11 12 22.7          18.8 R EQ010952
     K04M06F  C2004 08 16.91663 22 03 24.47 +11 15 24.6          19.1 R EQ010A41
     K04M06F  C2004 08 16.93014 22 03 24.78 +11 15 23.6          19.6 R EQ010A41
     K04M06F  C2004 08 16.94370 22 03 25.16 +11 15 25.9          19.5 R EQ010A41

Observer details:
644 Palomar Mountain/NEAT.  Observers E. F. Helin, S. Pravdo, K. Lawrence,
    M. Hicks, R. Thicksten.  Measurer A. Lowe.  1.2-m Schmidt + CCD.
952 Marxuquera.  Observer J. J. Gomez.  0.25-m f/7.3 Schmidt-Cassegrain + CCD.
A41 Rezman Observatory, Kamnik.  Observers R. Palcic, A. Spenko.  0.41-m f/3.1
    reflector + CCD.

Orbital elements:
2004 MF6
Epoch 2004 July 14.0 TT = JDT 2453200.5                 MPC
M 354.92643              (2000.0)            P               Q
n   0.32053525     Peri.   76.14529     +0.67261839     +0.73659401
a   2.1145543      Node   236.35140     -0.70753614     +0.61214184
e   0.3967915      Incl.    4.87945     -0.21674203     +0.28759630
P   3.07           H   20.0           G   0.15           U   2
Residuals in seconds of arc
011020 644  0.6-  0.1-    040716 246  0.1+  0.3+    040806 113  0.0   0.4+
011020 644  0.6-  0.3+    040716 246  0.0   0.0     040806 113  0.1+  0.6+
011020 644  0.9-  0.1+    040716 246  0.7+  0.4+    040806 176  0.1-  0.4-
011026 644  0.8+  0.6-    040716 246  0.3+  0.6+    040806 176  0.1+  0.2-
011026 644  0.8+  0.6-    040716 246  0.5+  0.2-    040806 176  0.1+  0.1-
011026 644  0.6+  1.0+    040718 671  0.0   0.1+    040806 176  0.1+  0.0
040625 703  0.3+  0.7+    040718 671  0.1+  0.1+    040806 176  0.3+  0.1+
040625 703  0.1-  1.1+    040718 671  0.2+  0.2+    040807 185  1.0+  0.9+
040625 703  0.1+  0.9+    040718 671  0.0   0.0     040807 185  0.2-  0.8-
040625 703  0.6-  0.3+    040719 246  0.4-  0.3+    040807 185  0.4-  0.5-
040625 246  0.4-  0.0     040719 246  0.7-  0.7-    040807 185  0.5-  0.3-
040626 246  0.7+  1.2-    040719 246  0.4-  0.0     040807 185  0.4-  0.1-
040626 246  0.1+  0.4-    040719 246  0.1-  0.2+    040808 113  0.2+  0.3+
040626 246  0.1+  0.1-    040719 246  0.2-  0.2+    040808 113  0.3+  0.7+
040626 246  0.1+  0.0     040720 170  0.1-  0.4+    040808 246  0.2-  0.0
040626 J87  0.2-  0.0     040720 170  0.2-  0.3+    040808 246  0.6-  0.1+
040626 461  0.4-  0.9+    040720 170  0.2-  0.1+    040808 246  0.1+  0.7+
040626 461  1.2-  0.6-    040720 170  0.3-  0.1+    040808 246  0.5+  0.4+
040626 J87  0.3-  0.8-    040721 G70  0.1+  0.5-    040808 246  0.2+  0.1+
040626 461  1.0-  0.5-    040721 G70  0.3-  0.1-    040808 246  0.2+  0.0
040626 651  0.2-  0.2-    040721 G70  0.3-  0.4-    040811 246  0.2-  0.2-
040626 651  0.7+  0.2-    040723 G70  0.0   0.7-    040811 246  0.2-  0.3-
040626 734  0.6+  0.9-    040723 G70  0.2+  0.5-    040811 246  0.1+  0.1-
040626 734  0.3+  0.1-    040723 G70  0.2+  0.1-    040811 246  0.1+  0.1-
040707 A50  0.9+  1.5+    040724 G70  0.2-  0.0     040811 246  0.1-  0.0
040707 A50 (0.9+  2.6+)   040724 G70  0.5+  0.1+    040811 G72  0.4+  0.5+
040707 A50  1.1+  1.7+    040724 G70  0.1-  0.3-    040811 G72  0.1+  0.6+
040707 A50  1.9+  1.6+    040724 941  0.3+  0.8-    040811 G72  0.4-  0.3+
040709 G70  0.8+  1.0-    040725 941  0.4+  0.6-    040811 G72  0.1-  0.0
040709 G70  0.4-  0.2+    040725 941  0.3+  0.4-    040811 G72  0.1-  0.2+
040709 G70  0.1-  0.1-    040725 941  0.1+  0.5-    040811 G72  0.2+  0.0
040711 G70  0.7-  0.1-    040725 941  0.0   0.4-    040811 G72  0.3+  0.8-
040711 G70  0.2-  0.3+    040725 G70  0.3-  0.1-    040811 G72  0.3-  0.2+
040711 G70  0.1+  0.2-    040725 G70  0.6-  0.1+    040811 G72  0.5+  0.1-
040712 G70  0.4-  1.1-    040725 G70  0.5-  0.3-    040811 G72  0.3-  1.0+
040712 G70  0.2-  0.1-    040801 A13  0.8-  1.3+    040811 198  0.0   0.2-
040712 G70  0.6-  0.3+    040801 A13  0.1-  0.2-    040811 198  0.1-  0.1-
040713 G70  0.2-  0.2-    040801 A13  0.2+  0.2-    040811 198  0.1-  0.1-
040713 G70  0.0   0.4-    040801 A13  1.0+  0.9-    040814 952  0.1-  0.4-
040713 G70  0.2-  0.4-    040801 A13  0.4+  0.8-    040814 952  0.1-  0.4-
040713 673  0.1+  0.0     040804 246  0.5+  0.5+    040814 952  0.2-  0.5-
040713 673  0.4-  0.2+    040804 246  0.2-  0.2+    040814 952  0.1-  0.5-
040713 673  0.3-  0.0     040804 246  0.3+  1.2+    040816 A41  0.2+  0.3+
040714 G70  0.1-  0.2-    040804 246  0.8+  0.5+    040816 A41  0.6-  1.5-
040714 G70  0.2-  0.2-    040804 246  0.0   0.8+    040816 A41  0.4-  0.0
040714 G70  0.2-  0.3-    040806 113  0.1+  0.4+

Ephemeris:
2004 MF6                 a,e,i = 2.11, 0.40, 5                   q = 1.2755
Date    TT    R. A. (2000) Decl.     Delta      r     Elong.  Phase     V
2004 08 13    22 00.99   +11 06.5    0.294    1.283   153.2    20.8    18.9
2004 08 23    22 06.83   +11 08.0    0.303    1.296   157.4    17.4    18.9
2004 09 02    22 12.34   +10 07.3    0.322    1.316   160.2    15.1    19.0
2004 09 12    22 18.51   +08 27.0    0.352    1.343   159.9    14.9    19.2
2004 09 22    22 26.17   +06 33.2    0.395    1.374   156.3    17.1    19.6
2004 10 02    22 35.71   +04 49.0    0.450    1.410   150.6    20.4    20.0
2004 10 12    22 47.04   +03 27.7    0.518    1.450   144.2    23.7    20.5
2004 10 22    22 59.96   +02 35.3    0.599    1.494   137.7    26.7    21.0
2004 11 01    23 14.19   +02 12.5    0.693    1.540   131.2    29.0    21.4
2004 11 11    23 29.39   +02 15.9    0.798    1.587   124.8    30.8    21.8

Kyle E. Smalley              (C) Copyright 2004 MPC           M.P.E.C. 2004-Q10

Read MPEC 2004-Q09 Read MPEC 2004-Q11


Our Web policy. Index to the CBAT/MPC/ICQ pages.


Valid HTML 4.01!